DW2150 Weather Reports


time (UTC)temp
F
wind
direction
speed
knots
gust
knots
rain 1hr
in
rain 24hr
in
rain mn
in
humidity
%
barometer
mb
20260831014620 85 342 0.0 0.0 0.00 0.00 0.00 80 1014.2
20260831014117 85 342 0.0 0.0 0.00 0.00 0.00 79 1014.2
20260831013614 85 342 0.0 0.0 0.00 0.00 0.00 79 1014.2
20260831013110 86 342 0.0 0.9 0.00 0.00 0.00 78 1014.2
20260831012608 86 342 0.0 0.9 0.00 0.00 0.00 78 1014.2
20260831012104 86 342 0.0 0.9 0.00 0.00 0.00 77 1013.9
20260831011530 86 342 0.9 0.9 0.00 0.00 0.00 77 1014.2
20260831011027 86 342 0.0 0.9 0.00 0.00 0.00 77 1013.9
20260831010524 87 342 0.0 0.9 0.00 0.00 0.00 76 1013.9
20260831010002 87 342 0.0 1.7 0.00 0.00 0.00 76 1013.9
20260831005459 87 342 0.0 1.7 0.00 0.00 0.00 76 1013.9
20260831004957 87 342 0.0 1.7 0.00 0.00 0.00 75 1013.9
20260831004453 87 342 0.0 1.7 0.00 0.00 0.00 74 1013.9
20260831003951 88 343 0.0 1.7 0.00 0.00 0.00 74 1013.9
20260831003448 88 344 0.0 1.7 0.00 0.00 0.00 74 1013.9
20260831002945 88 344 0.0 1.7 0.00 0.00 0.00 73 1013.9
20260831002442 89 344 0.0 1.7 0.00 0.00 0.00 73 1013.9
20260831001938 89 344 0.0 1.7 0.00 0.00 0.00 73 1013.9
20260831001434 89 22 0.9 0.9 0.00 0.00 0.00 71 1013.9
20260831000913 90 22 0.0 0.9 0.00 0.00 0.00 71 1013.9
20260831000325 90 22 0.0 0.9 0.00 0.00 0.00 71 1014.2
20260830235821 90 22 0.0 1.7 0.00 0.00 0.00 70 1013.9
20260830235311 91 22 0.9 1.7 0.00 0.00 0.00 69 1013.9
20260830234755 91 22 0.0 1.7 0.00 0.00 0.00 68 1013.9
20260830234202 92 24 0.9 2.6 0.00 0.00 0.00 68 1013.9
20260830233640 92 123 0.9 2.6 0.00 0.00 0.00 67 1013.9
20260830233047 92 124 0.9 2.6 0.00 0.00 0.00 66 1013.9
20260830232544 92 272 0.9 2.6 0.00 0.00 0.00 66 1013.9
20260830232041 93 274 0.9 2.6 0.00 0.00 0.00 65 1013.9
20260830231539 93 135 0.9 1.7 0.00 0.00 0.00 65 1013.9
20260830231036 93 124 0.9 1.7 0.00 0.00 0.00 65 1013.9
20260830230533 93 190 0.9 1.7 0.00 0.00 0.00 65 1013.9
20260830230030 94 206 0.9 1.7 0.00 0.00 0.00 65 1013.9
20260830225527 94 207 0.0 2.6 0.00 0.00 0.00 65 1013.9
20260830225023 94 207 0.9 2.6 0.00 0.00 0.00 64 1013.9
20260830224519 94 31 0.9 2.6 0.00 0.00 0.00 64 1013.9
20260830224016 95 84 0.9 2.6 0.00 0.00 0.00 63 1013.9
20260830223441 95 39 0.9 1.7 0.00 0.00 0.00 64 1013.9
20260830222907 95 42 0.9 2.6 0.00 0.00 0.00 64 1013.9
20260830222404 96 29 0.9 2.6 0.00 0.00 0.00 63 1013.9
20260830221901 96 261 0.9 2.6 0.00 0.00 0.00 62 1013.9
20260830221358 96 315 0.9 2.6 0.00 0.00 0.00 63 1013.9
20260830220855 96 15 0.9 4.3 0.00 0.00 0.00 64 1013.9
20260830220353 96 295 0.9 4.3 0.00 0.00 0.00 64 1013.9
20260830215759 96 40 0.9 4.3 0.00 0.00 0.00 64 1013.9
20260830215224 96 23 1.7 6.1 0.00 0.00 0.00 64 1013.9
20260830214722 97 36 0.9 6.1 0.00 0.00 0.00 65 1013.9
20260830214148 97 70 1.7 6.1 0.00 0.00 0.00 65 1013.9
20260830213644 97 44 1.7 6.1 0.00 0.00 0.00 64 1013.9
20260830213141 97 29 0.9 4.3 0.00 0.00 0.00 64 1013.9
20260830212637 97 8 1.7 4.3 0.00 0.00 0.00 64 1013.9
20260830212134 97 53 1.7 5.2 0.00 0.00 0.00 64 1013.9
20260830211631 97 47 0.9 6.1 0.00 0.00 0.00 65 1013.9
20260830211111 97 356 1.7 6.1 0.00 0.00 0.00 65 1014.2
20260830210549 97 12 2.6 6.1 0.00 0.00 0.00 64 1014.2
20260830210038 97 314 0.9 6.1 0.00 0.00 0.00 64 1014.2
20260830205508 98 25 1.7 5.2 0.00 0.00 0.00 64 1014.6
20260830204915 98 58 1.7 5.2 0.00 0.00 0.00 64 1014.6
20260830204341 98 31 0.9 5.2 0.00 0.00 0.00 65 1014.6
20260830203838 98 21 0.9 5.2 0.00 0.00 0.00 65 1014.6
20260830203335 98 298 0.9 4.3 0.00 0.00 0.00 64 1014.6
20260830202832 98 94 1.7 4.3 0.00 0.00 0.00 64 1014.6
20260830202313 98 285 0.9 4.3 0.00 0.00 0.00 63 1014.6
20260830201811 98 332 0.9 6.1 0.00 0.00 0.00 64 1014.9
20260830201308 98 85 1.7 6.1 0.00 0.00 0.00 64 1014.9
20260830200805 97 61 1.7 6.1 0.00 0.00 0.00 65 1014.9
20260830200303 97 66 1.7 6.1 0.00 0.00 0.00 64 1014.9
20260830195800 98 62 1.7 8.7 0.00 0.00 0.00 64 1014.9
20260830195257 98 46 2.6 8.7 0.00 0.00 0.00 64 1015.2
20260830194739 98 64 1.7 8.7 0.00 0.00 0.00 64 1015.2
20260830194133 98 61 2.6 8.7 0.00 0.00 0.00 63 1015.2
20260830193611 98 63 1.7 4.3 0.00 0.00 0.00 64 1015.2
20260830193109 98 323 1.7 6.1 0.00 0.00 0.00 65 1015.6
20260830192606 97 56 1.7 10.4 0.00 0.00 0.00 68 1015.6
20260830192045 96 55 1.7 10.4 0.00 0.00 0.00 68 1015.6
20260830191542 97 60 2.6 10.4 0.00 0.00 0.00 66 1015.6
20260830191001 97 55 3.5 10.4 0.00 0.00 0.00 66 1015.6
20260830190458 98 62 1.7 4.3 0.00 0.00 0.00 66 1015.9
20260830185956 97 346 1.7 6.1 0.00 0.00 0.00 66 1015.9
20260830185452 97 329 1.7 6.1 0.00 0.00 0.00 67 1015.9
20260830184949 97 47 2.6 6.1 0.00 0.00 0.00 66 1015.9
20260830184313 97 42 2.6 5.2 0.00 0.00 0.00 66 1015.9
20260830183806 97 87 1.7 4.3 0.00 0.00 0.00 67 1015.9
20260830183302 97 11 1.7 4.3 0.00 0.00 0.00 67 1016.3
20260830182759 97 39 1.7 4.3 0.00 0.00 0.00 66 1016.3
20260830182256 97 57 1.7 7.0 0.00 0.00 0.00 65 1016.3
20260830181752 98 47 1.7 7.0 0.00 0.00 0.00 65 1016.3
20260830181249 99 39 1.7 7.0 0.00 0.00 0.00 64 1016.6
20260830180746 99 347 0.9 3.5 0.00 0.00 0.00 64 1016.6
20260830180243 98 283 1.7 3.5 0.00 0.00 0.00 59 1016.6
20260830175718 98 277 0.9 3.5 0.00 0.00 0.00 59 1016.6
20260830175215 98 277 0.9 3.5 0.00 0.00 0.00 59 1016.9
20260830174712 98 231 0.9 3.5 0.00 0.00 0.00 60 1016.9
20260830174159 97 256 0.9 5.2 0.00 0.00 0.00 62 1016.9
20260830173655 97 54 0.9 6.1 0.00 0.00 0.00 61 1016.9
20260830173140 97 233 1.7 6.1 0.00 0.00 0.00 61 1017.3
20260830172504 97 264 2.6 6.1 0.00 0.00 0.00 62 1017.3
20260830172002 97 265 2.6 6.1 0.00 0.00 0.00 64 1017.3
20260830171459 96 248 0.0 0.0 0.00 0.00 0.00 64 1017.3
20260830170906 96 348 0.0 0.0 0.00 0.00 0.00 66 1017.3
20260830170402 95 277 0.0 0.0 0.00 0.00 0.00 67 1017.3
20260830165859 95 341 0.0 0.0 0.00 0.00 0.00 68 1017.3
20260830165356 95 341 0.0 0.0 0.00 0.00 0.00 66 1017.3
20260830164834 95 210 0.0 3.5 0.00 0.00 0.00 69 1017.3
20260830164332 94 242 0.0 3.5 0.00 0.00 0.00 69 1017.3
20260830163829 94 222 0.0 3.5 0.00 0.00 0.00 69 1017.3
20260830163326 93 288 0.0 0.0 0.00 0.00 0.00 69 1017.3
20260830162721 93 331 0.0 0.0 0.00 0.00 0.00 69 1017.3
20260830162218 93 254 0.0 0.0 0.00 0.00 0.00 72 1017.3
20260830161644 93 262 0.0 0.0 0.00 0.00 0.00 73 1017.6
20260830161141 93 18 0.0 1.7 0.00 0.00 0.00 71 1017.6
20260830160549 93 238 0.0 1.7 0.00 0.00 0.00 73 1017.6
20260830160046 92 264 0.0 1.7 0.00 0.00 0.00 73 1017.3
20260830155501 92 236 0.0 0.0 0.00 0.00 0.00 74 1017.3
20260830154953 92 297 0.0 0.0 0.00 0.00 0.00 74 1017.3
20260830154450 91 314 0.0 0.0 0.00 0.00 0.00 75 1017.3
20260830153859 90 250 0.0 0.0 0.00 0.00 0.00 77 1017.3
20260830153325 90 252 0.0 0.0 0.00 0.00 0.00 78 1017.3
20260830152751 89 240 0.0 0.0 0.00 0.00 0.00 79 1017.6
20260830152248 88 259 0.0 0.0 0.00 0.00 0.00 80 1017.6
20260830151726 88 252 0.0 0.9 0.00 0.00 0.00 80 1017.6
20260830151152 87 248 0.0 0.9 0.00 0.00 0.00 80 1017.6
20260830150649 87 248 0.0 0.9 0.00 0.00 0.00 81 1017.6
20260830150127 87 263 0.9 0.9 0.00 0.00 0.00 82 1017.6
20260830145623 87 237 0.0 0.0 0.00 0.00 0.00 83 1017.6
20260830145031 86 236 0.0 0.0 0.00 0.00 0.00 83 1017.6
20260830144510 86 253 0.0 0.0 0.00 0.00 0.00 84 1017.6
20260830143936 86 253 0.0 0.0 0.00 0.00 0.00 84 1017.6
20260830143433 85 249 0.0 0.0 0.00 0.00 0.00 85 1017.6
20260830142859 85 250 0.0 0.0 0.00 0.00 0.00 86 1017.6
20260830142357 84 286 0.0 0.0 0.00 0.00 0.00 86 1017.6
20260830141835 84 276 0.0 0.0 0.00 0.00 0.00 86 1017.6
20260830141313 83 306 0.0 0.0 0.00 0.00 0.00 87 1017.6
20260830140709 83 306 0.0 0.0 0.00 0.00 0.00 88 1017.6
20260830140205 83 306 0.0 0.0 0.00 0.00 0.00 88 1017.3
20260830135627 83 307 0.0 0.0 0.00 0.00 0.00 88 1017.3
20260830135110 82 307 0.0 0.0 0.00 0.00 0.00 89 1017.3
20260830134536 82 307 0.0 0.0 0.00 0.00 0.00 90 1017.3
20260830134033 82 307 0.0 0.0 0.00 0.00 0.00 91 1017.3
20260830133514 81 307 0.0 0.0 0.00 0.00 0.00 91 1017.3
20260830133011 81 306 0.0 0.0 0.00 0.00 0.00 91 1017.3
20260830132507 80 306 0.0 0.0 0.00 0.00 0.00 93 1016.9
20260830131946 80 307 0.0 0.0 0.00 0.00 0.00 94 1016.9
20260830131424 79 307 0.0 0.0 0.00 0.00 0.00 94 1016.9
20260830130903 79 307 0.0 0.0 0.00 0.00 0.00 94 1016.9
20260830130400 78 307 0.0 0.0 0.00 0.00 0.00 94 1016.9
20260830125837 78 307 0.0 0.0 0.00 0.00 0.00 94 1016.9
20260830125335 78 307 0.0 0.0 0.00 0.00 0.00 95 1016.9
20260830124832 78 306 0.0 0.0 0.00 0.00 0.00 94 1016.6
20260830124328 78 306 0.0 0.0 0.00 0.00 0.00 94 1016.6
20260830123825 77 307 0.0 0.0 0.00 0.00 0.00 94 1016.6
20260830123322 77 307 0.0 0.0 0.00 0.00 0.00 94 1016.6
20260830122819 77 307 0.0 0.0 0.00 0.00 0.00 94 1016.6
20260830122317 77 306 0.0 0.0 0.00 0.00 0.00 94 1016.3
20260830121813 77 307 0.0 0.0 0.00 0.00 0.00 94 1016.6
20260830121310 77 307 0.0 0.0 0.00 0.00 0.00 94 1016.6
20260830120807 77 307 0.0 0.0 0.00 0.00 0.00 94 1016.6
20260830120303 77 307 0.0 0.0 0.00 0.00 0.00 94 1016.6
20260830115759 77 306 0.0 0.0 0.00 0.00 0.00 94 1016.6
20260830115256 77 307 0.0 0.0 0.00 0.00 0.00 94 1016.6
20260830114723 77 307 0.0 0.0 0.00 0.00 0.00 94 1016.6
20260830114220 77 307 0.0 0.0 0.00 0.00 0.00 94 1016.6
20260830113701 77 307 0.0 0.0 0.00 0.00 0.00 94 1016.6
20260830113056 77 306 0.0 0.0 0.00 0.00 0.00 94 1016.6
20260830112553 77 306 0.0 0.0 0.00 0.00 0.00 94 1016.3
20260830112032 77 307 0.0 0.0 0.00 0.00 0.00 93 1016.3
20260830111528 77 307 0.0 0.0 0.00 0.00 0.00 94 1016.3
20260830111025 77 306 0.0 0.0 0.00 0.00 0.00 93 1016.3
20260830110522 77 307 0.0 0.0 0.00 0.00 0.00 93 1016.3
20260830110019 77 306 0.0 0.0 0.00 0.00 0.00 93 1016.3
20260830105516 77 306 0.0 0.0 0.00 0.00 0.00 93 1016.3
20260830105013 77 306 0.0 0.0 0.00 0.00 0.00 93 1016.3
20260830104451 77 307 0.0 0.0 0.00 0.00 0.00 93 1016.3
20260830103948 77 306 0.0 0.0 0.00 0.00 0.00 93 1016.3
20260830103445 77 306 0.0 0.0 0.00 0.00 0.00 93 1016.3
20260830102840 77 306 0.0 0.0 0.00 0.00 0.00 93 1016.3
20260830102336 78 307 0.0 0.0 0.00 0.00 0.00 93 1016.3
20260830101802 78 307 0.0 0.0 0.00 0.00 0.00 93 1016.3
20260830101259 78 306 0.0 0.0 0.00 0.00 0.00 93 1016.3
20260830100756 78 306 0.0 0.0 0.00 0.00 0.00 93 1015.9
20260830100252 78 306 0.0 0.0 0.00 0.00 0.00 93 1015.9
20260830095622 78 307 0.0 0.0 0.00 0.00 0.00 93 1015.9
20260830095119 78 306 0.0 0.0 0.00 0.00 0.00 93 1015.9
20260830094545 78 307 0.0 0.0 0.00 0.00 0.00 93 1015.9
20260830094041 78 306 0.0 0.0 0.00 0.00 0.00 93 1015.9
20260830093508 78 306 0.0 0.0 0.00 0.00 0.00 93 1015.9
20260830092934 78 306 0.0 0.0 0.00 0.00 0.00 93 1015.9
20260830092431 78 306 0.0 0.0 0.00 0.00 0.00 93 1015.9
20260830091928 78 306 0.0 0.0 0.00 0.00 0.00 93 1015.9
20260830091424 78 307 0.0 0.0 0.00 0.00 0.00 93 1015.9
20260830090921 78 306 0.0 0.0 0.00 0.00 0.00 93 1015.9
20260830090419 78 306 0.0 0.0 0.00 0.00 0.00 93 1015.9
20260830085915 78 307 0.0 0.0 0.00 0.00 0.00 93 1015.9
20260830085412 78 306 0.0 0.0 0.00 0.00 0.00 93 1015.9
20260830084838 78 306 0.0 0.0 0.00 0.00 0.00 93 1015.9
20260830084304 78 306 0.0 0.0 0.00 0.00 0.00 92 1015.9
20260830083802 78 306 0.0 0.0 0.00 0.00 0.00 92 1015.9
20260830083259 78 306 0.0 0.0 0.00 0.00 0.00 92 1015.9
20260830082724 78 307 0.0 0.0 0.00 0.00 0.00 92 1015.9
20260830082218 78 306 0.0 0.0 0.00 0.00 0.00 92 1015.9
20260830081713 78 306 0.0 0.0 0.00 0.00 0.00 92 1015.9
20260830081208 78 307 0.0 0.0 0.00 0.00 0.00 92 1015.9
20260830080705 78 306 0.0 0.0 0.00 0.00 0.00 92 1015.9
20260830080201 78 306 0.0 0.0 0.00 0.00 0.00 92 1016.3
20260830075621 78 306 0.0 0.0 0.00 0.00 0.00 92 1015.9
20260830075035 78 307 0.0 0.0 0.00 0.00 0.00 92 1016.3
20260830074532 79 306 0.0 0.0 0.00 0.00 0.00 92 1015.9
20260830074030 79 306 0.0 0.0 0.00 0.00 0.00 92 1016.3
20260830073455 79 306 0.0 0.0 0.00 0.00 0.00 92 1016.3
20260830072952 79 306 0.0 0.0 0.00 0.00 0.00 92 1016.3
20260830072450 79 306 0.0 0.0 0.00 0.00 0.00 91 1016.3
20260830071947 79 306 0.0 0.0 0.00 0.00 0.00 91 1016.3
20260830071444 79 306 0.0 0.0 0.00 0.00 0.00 91 1016.3
20260830070941 79 306 0.0 0.0 0.00 0.00 0.00 91 1016.3
20260830070348 79 306 0.0 0.0 0.00 0.00 0.00 91 1016.3
20260830065845 79 306 0.0 0.0 0.00 0.00 0.00 91 1016.3
20260830065341 79 307 0.0 0.0 0.00 0.00 0.00 91 1016.3
20260830064838 79 307 0.0 0.0 0.00 0.00 0.00 91 1016.3
20260830064336 79 306 0.0 0.0 0.00 0.00 0.00 91 1015.9
20260830063730 79 306 0.0 0.0 0.00 0.00 0.00 91 1015.9
20260830063227 79 307 0.0 0.0 0.00 0.00 0.00 91 1015.9
20260830062724 79 306 0.0 0.0 0.00 0.00 0.00 90 1015.9
20260830062221 79 306 0.0 0.0 0.00 0.00 0.00 90 1015.9
20260830061647 79 306 0.0 0.0 0.00 0.00 0.00 90 1015.9
20260830061143 80 306 0.0 0.0 0.00 0.00 0.00 90 1016.3
20260830060640 80 306 0.0 0.0 0.00 0.00 0.00 90 1016.3
20260830060118 80 306 0.0 0.0 0.00 0.00 0.00 90 1015.9
20260830055556 80 306 0.0 0.0 0.00 0.00 0.00 90 1015.9
20260830055054 80 306 0.0 0.0 0.00 0.00 0.00 90 1016.3
20260830054448 80 306 0.0 0.0 0.00 0.00 0.00 90 1016.3
20260830053945 80 306 0.0 0.0 0.00 0.00 0.00 90 1016.3
20260830053443 80 306 0.0 0.0 0.00 0.00 0.00 90 1016.3
20260830052939 80 307 0.0 0.0 0.00 0.00 0.00 90 1016.3
20260830052436 80 306 0.0 0.0 0.00 0.00 0.00 89 1016.3
20260830051918 80 306 0.0 0.0 0.00 0.00 0.00 89 1016.3
20260830051415 80 306 0.0 0.0 0.00 0.00 0.00 89 1016.3
20260830050857 80 306 0.0 0.0 0.00 0.00 0.00 89 1016.3
20260830050338 80 306 0.0 0.0 0.00 0.00 0.00 89 1016.3
20260830045836 80 306 0.0 0.0 0.00 0.00 0.00 89 1016.3
20260830045333 81 306 0.0 0.0 0.00 0.00 0.00 89 1016.3
20260830044759 81 306 0.0 0.0 0.00 0.00 0.00 89 1016.3
20260830044257 81 306 0.0 0.0 0.00 0.00 0.00 88 1016.3
20260830043754 81 306 0.0 0.0 0.00 0.00 0.00 88 1016.3
20260830043250 81 306 0.0 0.0 0.00 0.00 0.00 88 1016.3
20260830042747 81 306 0.0 0.0 0.00 0.00 0.00 88 1016.3
20260830042243 81 306 0.0 0.0 0.00 0.00 0.00 88 1016.3
20260830041607 81 306 0.0 0.0 0.00 0.00 0.00 88 1016.3
20260830041002 82 306 0.0 0.0 0.00 0.00 0.00 88 1016.3
20260830040459 82 307 0.0 0.0 0.00 0.00 0.00 88 1016.3
20260830035956 82 306 0.0 0.0 0.00 0.00 0.00 88 1016.3
20260830035452 82 306 0.0 0.0 0.00 0.00 0.00 87 1016.3
20260830034949 82 306 0.0 0.0 0.00 0.00 0.00 88 1016.3
20260830034447 82 306 0.0 0.0 0.00 0.00 0.00 87 1016.3
20260830033944 82 306 0.0 0.0 0.00 0.00 0.00 87 1016.3
20260830033441 82 306 0.0 0.0 0.00 0.00 0.00 87 1016.3
20260830032938 83 306 0.0 0.0 0.00 0.00 0.00 87 1016.3
20260830032435 83 306 0.0 0.0 0.00 0.00 0.00 87 1016.3
20260830031932 83 306 0.0 0.0 0.00 0.00 0.00 87 1016.3
20260830031428 83 306 0.0 0.0 0.00 0.00 0.00 87 1016.3
20260830030854 83 306 0.0 0.0 0.00 0.00 0.00 87 1015.9
20260830030351 83 306 0.0 0.0 0.00 0.00 0.00 86 1015.9
20260830025849 83 306 0.0 0.0 0.00 0.00 0.00 86 1015.9
20260830025346 83 306 0.0 0.0 0.00 0.00 0.00 86 1015.9
20260830024741 83 306 0.0 0.0 0.00 0.00 0.00 86 1015.9
20260830024238 83 306 0.0 0.0 0.00 0.00 0.00 86 1015.9
20260830023734 83 306 0.0 0.0 0.00 0.00 0.00 86 1015.9
20260830023232 83 306 0.0 0.0 0.00 0.00 0.00 86 1015.9
20260830022728 84 306 0.0 0.0 0.00 0.00 0.00 85 1015.9
20260830022225 84 306 0.0 0.0 0.00 0.00 0.00 85 1015.6
20260830021722 84 306 0.0 0.0 0.00 0.00 0.00 85 1015.6
20260830021219 84 306 0.0 0.0 0.00 0.00 0.00 85 1015.6
20260830020716 84 306 0.0 0.0 0.00 0.00 0.00 84 1015.6
20260830020213 84 306 0.0 0.0 0.00 0.00 0.00 84 1015.2
20260830015636 85 306 0.0 0.0 0.00 0.00 0.00 84 1015.2
20260830015133 85 306 0.0 0.0 0.00 0.00 0.00 83 1015.2